ATLAS 5 CENTAUR DEB, 44038

Orbit data source: Space-Track

ATLAS 5 CENTAUR DEB, 44038 is space debris in HEO originally from a launch on Wed, 17 Sep 2014 UTC launched from the Air Force Eastern Test Range (AFETR). Debris objects in space refer to the collection of defunct objects orbiting the Earth. Examples of debris include non-operational satellites, rocket bodies, and fragments generated from explosions, collisions, or faulty payload assembly.

Loading next visibility...
Identifier
44038, 2014-055BY
Orbit
HEO
Country
Flag of USUS
Related business
Flag of USUnited Launch Alliance/Lockheed Martin (US)
Manufacturer
Unknown
Mission
Spacecraft
Bus & Motor
Unknown
Mass
Unknown
Launch date (UTC)
2014-09-17 (12 years ago)
Launch vehicle
Unknown
Launch site
Air Force Eastern Test Range (AFETR)
Object type
Payload
Rocket body
Debris
Shape & HBR
Unknown shape, 1.1 m
Radar Cross Section
Medium (>0.1 m² and <1 m²)

Expand to show TLE details & history
Last TLE update: 1 day ago

TLE from 1 day ago
0 ATLAS 5 CENTAUR DEB
1 44038U 14055BY  26237.43675971 -.00000011  00000-0  00000-0 0  9999
2 44038  19.0131 183.8592 4643575  94.3171 318.0897  1.76611483 50492
Epoch: 2026-08-25T10:28Z
TLE epoch observation values (Epoch: 2026-08-25T10:28:56.038Z)
Latitude
0.00002°
Longitude
52.80793°
Altitude
17,160.702 km
Speed
4.481 km/s
True Right ascension
12h 14m 58s
True Declination
0° 00' 00"
Sunlit
Object was in daylight at epoch
Visualization orbit readout
Latitude
Unknown
Longitude
Unknown
Altitude
Unknown
Speed
Unknown
Apparent Right ascension
Unknown
Apparent Declination
Unknown
Sunlit
N/A
Visualization observer readout
Local Sidereal Time
09:18:52
Azimuth
Unknown
Elevation
Unknown
Doppler factor
Unknown
Orbital elements
Apogee altitude
35,959.924 km
Perigee altitude
9,108.563 km
Semi-major axis
28,912.38 km
Eccentricity
0.46436
Inclination
19.0131°
RAAN
183.8592°
Arg. of periapsis
94.3171°
True anomaly
265.63656°
Mean anomaly
318.0897°
Eccentric anomaly
293.73423°
Mean motion
0.44149 °/min
Orbital period
815.43 mins
BSTAR
0
Loading maneuver chart data...
Computing Atmospheric mass density...

Documentation

Showing up to 5 results
|